Location: Gleizolles
(44.4833°N, 6.7667°E)
Time: 21:34:09
(UTC+00:00)

Tiros 1 despin weight - Pass Details

Date: 27 June 2024
Orbit: 576 x 620 km, 48.2° (Epoch: 19 July)

Event Time Altitude Azimuth Distance (km) Brightness Sun altitude
Rises 13:48:19 0° 288° (WNW) 2,896 ? 55.7°
Reaches altitude 10° 13:50:39 10° 291° (WNW) 1,990 ? 55.4°
Maximum altitude 13:55:13 68° 15° (NNE) 669 ? 54.6°
Drops below altitude 10° 13:59:46 10° 99° (E) 1,977 ? 53.9°
Sets 14:02:05 0° 102° (ESE) 2,876 ? 53.5°
